Time,TemperatureF,DewpointF,PressureIn,WindDirection,WindDirectionDegrees,WindSpeedMPH,WindSpeedGustMPH,Humidity,HourlyPrecipIn,Conditions,Clouds,dailyrainin,SoftwareType,DateUTC
2013-09-02 00:00:00,56.2,49.4,29.94,NNE,31,0.0,0.0,78,0.00,,,0.00,Wunderground v.1.15,2013-09-02 05:00:00,
2013-09-02 00:10:00,55.7,49.3,29.94,NNE,31,0.0,0.0,79,0.00,,,0.00,Wunderground v.1.15,2013-09-02 05:10:00,
2013-09-02 00:15:00,55.4,49.3,29.94,NNE,31,0.0,0.0,80,0.00,,,0.00,Wunderground v.1.15,2013-09-02 05:15:00,
2013-09-02 00:20:00,55.1,49.0,29.95,NNE,30,0.0,0.0,80,0.00,,,0.00,Wunderground v.1.15,2013-09-02 05:20:00,
2013-09-02 00:30:00,54.4,48.4,29.94,NNE,31,0.0,0.0,80,0.00,,,0.00,Wunderground v.1.15,2013-09-02 05:30:00,
2013-09-02 00:35:00,54.1,48.4,29.94,NNE,30,0.0,0.0,81,0.00,,,0.00,Wunderground v.1.15,2013-09-02 05:35:00,
2013-09-02 00:40:00,53.9,48.2,29.94,NNE,31,0.0,0.0,81,0.00,,,0.00,Wunderground v.1.15,2013-09-02 05:40:00,
2013-09-02 00:45:00,53.6,48.2,29.95,NNE,31,0.0,0.0,82,0.00,,,0.00,Wunderground v.1.15,2013-09-02 05:45:00,
2013-09-02 00:50:00,53.3,47.9,29.94,NNE,31,0.0,0.0,82,0.00,,,0.00,Wunderground v.1.15,2013-09-02 05:50:00,
2013-09-02 01:00:00,52.9,47.9,29.95,NNE,31,0.0,0.0,83,0.00,,,0.00,Wunderground v.1.15,2013-09-02 06:00:00,
2013-09-02 01:10:00,52.6,47.9,29.95,NNE,31,0.0,0.0,84,0.00,,,0.00,Wunderground v.1.15,2013-09-02 06:10:00,
2013-09-02 01:15:00,52.4,47.7,29.95,NNE,31,0.0,0.0,84,0.00,,,0.00,Wunderground v.1.15,2013-09-02 06:15:00,
2013-09-02 01:20:00,52.3,47.9,29.95,NNE,30,0.0,0.0,85,0.00,,,0.00,Wunderground v.1.15,2013-09-02 06:20:00,
2013-09-02 01:25:00,52.2,48.1,29.95,NNE,31,0.0,0.0,86,0.00,,,0.00,Wunderground v.1.15,2013-09-02 06:25:00,
2013-09-02 01:30:00,52.1,47.7,29.95,NNE,30,0.0,0.0,85,0.00,,,0.00,Wunderground v.1.15,2013-09-02 06:30:00,
2013-09-02 01:40:00,51.8,47.4,29.95,NNE,31,0.0,0.0,85,0.00,,,0.00,Wunderground v.1.15,2013-09-02 06:40:00,
2013-09-02 01:45:00,51.6,47.2,29.95,NNE,31,0.0,0.0,85,0.00,,,0.00,Wunderground v.1.15,2013-09-02 06:45:00,
2013-09-02 01:50:00,51.4,47.0,29.95,NNE,30,0.0,0.0,85,0.00,,,0.00,Wunderground v.1.15,2013-09-02 06:50:00,
2013-09-02 01:55:00,51.2,47.2,29.95,NNE,31,0.0,0.0,86,0.00,,,0.00,Wunderground v.1.15,2013-09-02 06:55:00,
2013-09-02 02:00:00,51.0,47.0,29.95,NNE,31,0.0,0.0,86,0.00,,,0.00,Wunderground v.1.15,2013-09-02 07:00:00,
2013-09-02 02:10:00,51.1,47.1,29.96,NNE,31,0.0,0.0,86,0.00,,,0.00,Wunderground v.1.15,2013-09-02 07:10:00,
2013-09-02 02:15:00,51.0,47.0,29.96,NNE,30,0.0,0.0,86,0.00,,,0.00,Wunderground v.1.15,2013-09-02 07:15:00,
2013-09-02 02:20:00,50.9,46.9,29.96,NNE,31,0.0,0.0,86,0.00,,,0.00,Wunderground v.1.15,2013-09-02 07:20:00,
2013-09-02 02:25:00,50.8,46.8,29.96,NNE,30,0.0,0.0,86,0.00,,,0.00,Wunderground v.1.15,2013-09-02 07:25:00,
2013-09-02 02:30:00,50.7,47.0,29.96,NNE,31,0.0,0.0,87,0.00,,,0.00,Wunderground v.1.15,2013-09-02 07:30:00,
2013-09-02 02:35:00,50.7,47.0,29.95,NNE,30,0.0,0.0,87,0.00,,,0.00,Wunderground v.1.15,2013-09-02 07:35:00,
2013-09-02 02:45:00,50.6,47.2,29.95,NNE,31,0.0,0.0,88,0.00,,,0.00,Wunderground v.1.15,2013-09-02 07:45:00,
2013-09-02 02:50:00,50.5,47.1,29.95,NNE,31,0.0,0.0,88,0.00,,,0.00,Wunderground v.1.15,2013-09-02 07:50:00,
2013-09-02 02:55:00,50.3,46.9,29.96,NNE,31,0.0,0.0,88,0.00,,,0.00,Wunderground v.1.15,2013-09-02 07:55:00,
2013-09-02 03:00:00,50.1,46.7,29.96,NNE,30,0.0,0.0,88,0.00,,,0.00,Wunderground v.1.15,2013-09-02 08:00:00,
2013-09-02 03:10:00,50.0,46.9,29.96,NNE,30,0.0,0.0,89,0.00,,,0.00,Wunderground v.1.15,2013-09-02 08:10:00,
2013-09-02 03:15:00,49.9,46.8,29.96,NNE,31,0.0,0.0,89,0.00,,,0.00,Wunderground v.1.15,2013-09-02 08:15:00,
2013-09-02 03:20:00,49.8,46.7,29.96,NNE,30,0.0,0.0,89,0.00,,,0.00,Wunderground v.1.15,2013-09-02 08:20:00,
2013-09-02 03:25:00,49.7,46.6,29.96,NNE,31,0.0,0.0,89,0.00,,,0.00,Wunderground v.1.15,2013-09-02 08:25:00,
2013-09-02 03:35:00,49.5,46.7,29.96,NNE,30,0.0,0.0,90,0.00,,,0.00,Wunderground v.1.15,2013-09-02 08:35:00,
2013-09-02 03:40:00,49.7,47.2,29.97,NNE,31,0.0,0.0,91,0.00,,,0.00,Wunderground v.1.15,2013-09-02 08:40:00,
2013-09-02 03:45:00,49.9,47.4,29.97,NNE,31,0.0,0.0,91,0.00,,,0.00,Wunderground v.1.15,2013-09-02 08:45:00,
2013-09-02 03:50:00,49.9,47.4,29.97,NNE,31,0.0,0.0,91,0.00,,,0.00,Wunderground v.1.15,2013-09-02 08:50:00,
2013-09-02 03:55:00,50.0,47.5,29.97,NNE,31,0.0,0.0,91,0.00,,,0.00,Wunderground v.1.15,2013-09-02 08:55:00,
2013-09-02 04:00:00,49.9,47.4,29.97,NNE,30,0.0,0.0,91,0.00,,,0.00,Wunderground v.1.15,2013-09-02 09:00:00,
2013-09-02 04:10:00,50.1,47.6,29.97,NNE,30,0.0,0.0,91,0.00,,,0.00,Wunderground v.1.15,2013-09-02 09:10:00,
2013-09-02 04:15:00,50.1,47.6,29.97,NNE,31,0.0,0.0,91,0.00,,,0.00,Wunderground v.1.15,2013-09-02 09:15:00,
2013-09-02 04:20:00,50.1,47.6,29.97,NNE,31,0.0,0.0,91,0.00,,,0.00,Wunderground v.1.15,2013-09-02 09:20:00,
2013-09-02 04:25:00,50.1,47.6,29.97,NNE,30,0.0,0.0,91,0.00,,,0.00,Wunderground v.1.15,2013-09-02 09:25:00,
2013-09-02 04:35:00,50.4,47.9,29.97,NNE,31,0.0,0.0,91,0.00,,,0.00,Wunderground v.1.15,2013-09-02 09:35:00,
2013-09-02 04:40:00,50.5,47.7,29.97,NNE,30,0.0,0.0,90,0.00,,,0.00,Wunderground v.1.15,2013-09-02 09:40:00,
2013-09-02 04:45:00,50.5,47.7,29.97,NNE,31,0.0,0.0,90,0.00,,,0.00,Wunderground v.1.15,2013-09-02 09:45:00,
2013-09-02 04:50:00,50.4,47.3,29.98,NNE,30,0.0,1.0,89,0.00,,,0.00,Wunderground v.1.15,2013-09-02 09:50:00,
2013-09-02 04:55:00,50.3,47.2,29.98,NNE,31,1.0,1.0,89,0.00,,,0.00,Wunderground v.1.15,2013-09-02 09:55:00,
2013-09-02 05:00:00,50.2,47.1,29.98,NNE,30,1.0,1.0,89,0.00,,,0.00,Wunderground v.1.15,2013-09-02 10:00:00,
2013-09-02 05:10:00,50.1,47.0,29.98,NNE,31,1.0,1.0,89,0.00,,,0.00,Wunderground v.1.15,2013-09-02 10:10:00,
2013-09-02 05:15:00,50.0,46.9,29.98,NNE,31,1.0,2.0,89,0.00,,,0.00,Wunderground v.1.15,2013-09-02 10:15:00,
2013-09-02 05:25:00,49.7,46.6,29.98,NNE,31,1.0,2.0,89,0.00,,,0.00,Wunderground v.1.15,2013-09-02 10:25:00,
2013-09-02 05:35:00,49.4,46.6,29.98,NNE,31,1.0,2.0,90,0.00,,,0.00,Wunderground v.1.15,2013-09-02 10:35:00,
2013-09-02 05:40:00,49.4,46.6,29.97,NNE,30,1.0,2.0,90,0.00,,,0.00,Wunderground v.1.15,2013-09-02 10:40:00,
2013-09-02 05:45:00,49.2,46.4,29.97,NNE,31,1.0,2.0,90,0.00,,,0.00,Wunderground v.1.15,2013-09-02 10:45:00,
2013-09-02 05:50:00,49.1,46.3,29.97,NNE,31,1.0,1.0,90,0.00,,,0.00,Wunderground v.1.15,2013-09-02 10:50:00,
2013-09-02 05:55:00,49.0,46.2,29.98,NNE,30,0.0,1.0,90,0.00,,,0.00,Wunderground v.1.15,2013-09-02 10:55:00,
2013-09-02 06:05:00,48.8,46.3,29.98,NNE,31,0.0,0.0,91,0.00,,,0.00,Wunderground v.1.15,2013-09-02 11:05:00,
2013-09-02 06:10:00,48.7,46.2,29.98,NNE,31,0.0,0.0,91,0.00,,,0.00,Wunderground v.1.15,2013-09-02 11:10:00,
2013-09-02 06:15:00,48.5,46.0,29.98,NNE,30,0.0,0.0,91,0.00,,,0.00,Wunderground v.1.15,2013-09-02 11:15:00,
2013-09-02 06:20:00,48.3,45.5,29.98,NNE,31,0.0,0.0,90,0.00,,,0.00,Wunderground v.1.15,2013-09-02 11:20:00,
2013-09-02 06:25:00,48.1,45.3,29.98,NNE,31,0.0,0.0,90,0.00,,,0.00,Wunderground v.1.15,2013-09-02 11:25:00,
2013-09-02 06:35:00,47.7,44.9,29.98,NNE,30,0.0,0.0,90,0.00,,,0.00,Wunderground v.1.15,2013-09-02 11:35:00,
2013-09-02 06:45:00,47.2,44.4,29.99,NNE,31,0.0,0.0,90,0.00,,,0.00,Wunderground v.1.15,2013-09-02 11:45:00,
2013-09-02 06:50:00,47.0,44.2,29.99,NNE,30,0.0,0.0,90,0.00,,,0.00,Wunderground v.1.15,2013-09-02 11:50:00,
2013-09-02 06:55:00,46.9,44.1,29.99,NNE,31,0.0,0.0,90,0.00,,,0.00,Wunderground v.1.15,2013-09-02 11:55:00,
2013-09-02 07:00:00,46.9,44.1,29.99,NNE,31,0.0,0.0,90,0.00,,,0.00,Wunderground v.1.15,2013-09-02 12:00:00,
2013-09-02 07:10:00,47.0,44.5,30.00,NNE,31,0.0,0.0,91,0.00,,,0.00,Wunderground v.1.15,2013-09-02 12:10:00,
2013-09-02 07:15:00,47.0,44.5,30.00,NNE,31,0.0,0.0,91,0.00,,,0.00,Wunderground v.1.15,2013-09-02 12:15:00,
2013-09-02 07:20:00,47.3,44.8,29.99,NNE,31,0.0,0.0,91,0.00,,,0.00,Wunderground v.1.15,2013-09-02 12:20:00,
2013-09-02 07:25:00,47.5,45.3,29.99,NNE,31,0.0,0.0,92,0.00,,,0.00,Wunderground v.1.15,2013-09-02 12:25:00,
2013-09-02 07:30:00,47.8,45.3,29.99,NNE,30,0.0,0.0,91,0.00,,,0.00,Wunderground v.1.15,2013-09-02 12:30:00,
2013-09-02 07:40:00,48.2,45.7,29.99,NNE,30,1.0,2.0,91,0.00,,,0.00,Wunderground v.1.15,2013-09-02 12:40:00,
2013-09-02 07:45:00,48.3,45.5,29.99,NNE,32,1.0,2.0,90,0.00,,,0.00,Wunderground v.1.15,2013-09-02 12:45:00,
2013-09-02 07:50:00,48.4,45.6,29.99,NNE,32,1.0,2.0,90,0.00,,,0.00,Wunderground v.1.15,2013-09-02 12:50:00,
2013-09-02 07:55:00,48.4,45.6,29.99,NE,54,1.0,2.0,90,0.00,,,0.00,Wunderground v.1.15,2013-09-02 12:55:00,
2013-09-02 08:00:00,48.6,45.8,29.99,ENE,65,1.0,1.0,90,0.00,,,0.00,Wunderground v.1.15,2013-09-02 13:00:00,
2013-09-02 08:10:00,49.5,46.7,29.99,ENE,65,1.0,1.0,90,0.00,,,0.00,Wunderground v.1.15,2013-09-02 13:10:00,
2013-09-02 08:15:00,50.3,47.2,29.99,ENE,65,1.0,2.0,89,0.00,,,0.00,Wunderground v.1.15,2013-09-02 13:15:00,
2013-09-02 08:25:00,51.9,48.5,29.99,SE,146,2.0,2.0,88,0.00,,,0.00,Wunderground v.1.15,2013-09-02 13:25:00,
2013-09-02 08:30:00,52.8,49.0,29.99,SE,139,2.0,2.0,87,0.00,,,0.00,Wunderground v.1.15,2013-09-02 13:30:00,
2013-09-02 08:35:00,53.8,49.7,29.99,ESE,123,2.0,3.0,86,0.00,,,0.00,Wunderground v.1.15,2013-09-02 13:35:00,
2013-09-02 08:40:00,54.5,50.1,29.99,SSE,153,2.0,2.0,85,0.00,,,0.00,Wunderground v.1.15,2013-09-02 13:40:00,
2013-09-02 08:50:00,55.9,50.8,29.98,ESE,112,2.0,2.0,83,0.00,,,0.00,Wunderground v.1.15,2013-09-02 13:50:00,
2013-09-02 08:55:00,56.6,51.5,29.98,SE,146,2.0,6.0,83,0.00,,,0.00,Wunderground v.1.15,2013-09-02 13:55:00,
2013-09-02 09:00:00,57.5,51.7,29.98,SSE,147,2.0,2.0,81,0.00,,,0.00,Wunderground v.1.15,2013-09-02 14:00:00,
2013-09-02 09:10:00,58.8,52.6,29.99,SSE,167,2.0,2.0,80,0.00,,,0.00,Wunderground v.1.15,2013-09-02 14:10:00,
2013-09-02 09:15:00,59.4,52.5,29.98,ESE,119,2.0,2.0,78,0.00,,,0.00,Wunderground v.1.15,2013-09-02 14:15:00,
2013-09-02 09:25:00,60.7,52.4,29.98,SE,138,3.0,5.0,74,0.00,,,0.00,Wunderground v.1.15,2013-09-02 14:25:00,
2013-09-02 09:35:00,61.9,52.8,29.98,ESE,111,3.0,6.0,72,0.00,,,0.00,Wunderground v.1.15,2013-09-02 14:35:00,
2013-09-02 09:40:00,62.7,53.2,29.98,SE,142,3.0,3.0,71,0.00,,,0.00,Wunderground v.1.15,2013-09-02 14:40:00,
2013-09-02 09:45:00,63.4,53.0,29.98,SE,134,2.0,3.0,69,0.00,,,0.00,Wunderground v.1.15,2013-09-02 14:45:00,
2013-09-02 09:50:00,63.9,52.7,29.98,SE,141,3.0,3.0,67,0.00,,,0.00,Wunderground v.1.15,2013-09-02 14:50:00,
2013-09-02 09:55:00,64.5,52.9,29.98,SSE,153,3.0,3.0,66,0.00,,,0.00,Wunderground v.1.15,2013-09-02 14:55:00,
2013-09-02 10:00:00,65.0,52.5,29.98,SE,136,3.0,3.0,64,0.00,,,0.00,Wunderground v.1.15,2013-09-02 15:00:00,
2013-09-02 10:10:00,66.1,53.1,29.98,SSE,153,3.0,3.0,63,0.00,,,0.00,Wunderground v.1.15,2013-09-02 15:10:00,
2013-09-02 10:15:00,67.0,53.1,29.98,SSE,163,3.0,3.0,61,0.00,,,0.00,Wunderground v.1.15,2013-09-02 15:15:00,
2013-09-02 10:20:00,67.4,53.5,29.98,SE,142,3.0,3.0,61,0.00,,,0.00,Wunderground v.1.15,2013-09-02 15:20:00,
2013-09-02 10:30:00,67.9,53.0,29.97,SE,138,3.0,3.0,59,0.00,,,0.00,Wunderground v.1.15,2013-09-02 15:30:00,
2013-09-02 10:35:00,68.1,53.2,29.98,SSE,164,4.0,5.0,59,0.00,,,0.00,Wunderground v.1.15,2013-09-02 15:35:00,
2013-09-02 10:40:00,68.4,52.1,29.97,SE,145,4.0,4.0,56,0.00,,,0.00,Wunderground v.1.15,2013-09-02 15:40:00,
2013-09-02 10:45:00,68.8,52.0,29.97,ESE,123,3.0,5.0,55,0.00,,,0.00,Wunderground v.1.15,2013-09-02 15:45:00,
2013-09-02 10:50:00,69.4,52.0,29.97,SE,126,3.0,5.0,54,0.00,,,0.00,Wunderground v.1.15,2013-09-02 15:50:00,
2013-09-02 10:55:00,69.8,52.4,29.97,SSE,161,3.0,5.0,54,0.00,,,0.00,Wunderground v.1.15,2013-09-02 15:55:00,
2013-09-02 11:00:00,70.6,52.1,29.97,SSE,152,2.0,2.0,52,0.00,,,0.00,Wunderground v.1.15,2013-09-02 16:00:00,
2013-09-02 11:10:00,71.1,53.1,29.96,ESE,109,3.0,3.0,53,0.00,,,0.00,Wunderground v.1.15,2013-09-02 16:10:00,
2013-09-02 18:35:00,83.0,56.9,29.83,SE,142,1.0,1.0,41,0.00,,,0.00,Wunderground v.1.15,2013-09-02 23:35:00,
2013-09-02 18:40:00,82.4,56.3,29.83,SE,142,0.0,1.0,41,0.00,,,0.00,Wunderground v.1.15,2013-09-02 23:40:00,
2013-09-02 18:45:00,82.0,56.6,29.83,SE,143,0.0,0.0,42,0.00,,,0.00,Wunderground v.1.15,2013-09-02 23:45:00,
2013-09-02 18:50:00,81.2,56.6,29.83,SE,142,0.0,0.0,43,0.00,,,0.00,Wunderground v.1.15,2013-09-02 23:50:00,
2013-09-02 18:55:00,80.7,56.8,29.83,SE,143,0.0,0.0,44,0.00,,,0.00,Wunderground v.1.15,2013-09-02 23:55:00,
2013-09-02 19:00:00,80.2,56.9,29.83,SE,143,0.0,0.0,45,0.00,,,0.00,Wunderground v.1.15,2013-09-03 00:00:00,
2013-09-02 19:10:00,79.3,57.3,29.83,SSE,152,1.0,1.0,47,0.00,,,0.00,Wunderground v.1.15,2013-09-03 00:10:00,